FW8282 Weather Reports


Display with metric or nautical units.
time (UTC)temp
F
wind
direction
speed
MPH
gust
MPH
rain 1hr
in
rain 24hr
in
rain mn
in
humidity
%
barometer
mb
20260506224107 88 181 1.0 2.0 0.00 0.00 0.00 72 1013.8
20260506223603 88 290 0.0 0.0 0.00 0.00 0.00 72 1013.7
20260506223059 87 276 0.0 0.0 0.00 0.00 0.00 72 1013.8
20260506222556 87 248 0.0 2.0 0.00 0.00 0.00 71 1013.5
20260506222052 89 275 0.0 0.0 0.00 0.00 0.00 68 1013.5
20260506221550 89 233 0.0 0.0 0.00 0.00 0.00 62 1013.7
20260506221048 91 286 0.0 0.0 0.00 0.00 0.00 61 1013.6
20260506220544 92 292 2.0 2.0 0.00 0.00 0.00 56 1013.8
20260506220039 92 283 4.0 5.0 0.00 0.00 0.00 56 1013.8
20260506215536 93 231 0.0 0.0 0.00 0.00 0.00 56 1013.7
20260506215032 93 259 1.0 1.0 0.00 0.00 0.00 49 1013.6
20260506214529 93 253 0.0 0.0 0.00 0.00 0.00 50 1013.6
20260506214026 93 260 0.0 0.0 0.00 0.00 0.00 52 1013.7
20260506213525 95 219 0.0 0.0 0.00 0.00 0.00 49 1013.8
20260506213021 94 203 0.0 0.0 0.00 0.00 0.00 50 1013.9
20260506212518 94 293 0.0 0.0 0.00 0.00 0.00 49 1014.0
20260506212013 93 191 0.0 0.0 0.00 0.00 0.00 48 1013.8
20260506211509 93 273 0.0 0.0 0.00 0.00 0.00 49 1013.8
20260506211007 91 275 0.0 0.0 0.00 0.00 0.00 50 1014.0
20260506210503 91 195 0.0 0.0 0.00 0.00 0.00 48 1013.9
20260506210000 95 205 0.0 0.0 0.00 0.00 0.00 46 1013.7
20260506205456 96 53 0.0 0.0 0.00 0.00 0.00 43 1013.8
20260506204952 94 188 0.0 0.0 0.00 0.00 0.00 44 1013.7
20260506204450 96 109 0.0 0.0 0.00 0.00 0.00 44 1013.8
20260506203947 95 168 0.0 0.0 0.00 0.00 0.00 43 1013.8
20260506203444 95 268 0.0 0.0 0.00 0.00 0.00 45 1013.8
20260506202941 97 181 0.0 0.0 0.00 0.00 0.00 43 1013.8
20260506202438 96 160 0.0 0.0 0.00 0.00 0.00 43 1013.9
20260506201934 96 176 0.0 0.0 0.00 0.00 0.00 42 1013.8
20260506201432 96 162 0.0 0.0 0.00 0.00 0.00 44 1013.9
20260506200928 96 160 0.0 0.0 0.00 0.00 0.00 44 1013.8
20260506200425 96 252 0.0 0.0 0.00 0.00 0.00 44 1014.0
20260506195921 93 327 0.0 0.0 0.00 0.00 0.00 48 1013.8
20260506195419 96 250 0.0 0.0 0.00 0.00 0.00 46 1013.9
20260506194915 95 244 1.0 2.0 0.00 0.00 0.00 44 1013.8
20260506194412 95 173 0.0 0.0 0.00 0.00 0.00 44 1013.9
20260506193909 93 172 0.0 0.0 0.00 0.00 0.00 45 1014.2
20260506193406 95 307 0.0 0.0 0.00 0.00 0.00 43 1013.9
20260506192902 95 182 0.0 0.0 0.00 0.00 0.00 45 1014.1
20260506192359 96 239 0.0 0.0 0.00 0.00 0.00 45 1014.1
20260506191856 95 165 0.0 0.0 0.00 0.00 0.00 48 1014.2
20260506191353 94 245 0.0 0.0 0.00 0.00 0.00 47 1014.3
20260506190850 93 250 0.0 0.0 0.00 0.00 0.00 48 1014.6
20260506190346 91 333 0.0 0.0 0.00 0.00 0.00 51 1014.5
20260506185843 95 249 0.0 1.0 0.00 0.00 0.00 50 1014.6
20260506185340 95 153 0.0 0.0 0.00 0.00 0.00 45 1014.5
20260506184837 95 167 0.0 0.0 0.00 0.00 0.00 48 1014.8
20260506184334 91 201 0.0 0.0 0.00 0.00 0.00 49 1014.8
20260506183832 95 97 0.0 0.0 0.00 0.00 0.00 47 1014.9
20260506183326 95 165 0.0 0.0 0.00 0.00 0.00 47 1015.0
20260506182824 94 203 0.0 0.0 0.00 0.00 0.00 45 1014.8
20260506182321 94 191 0.0 0.0 0.00 0.00 0.00 47 1015.1
20260506181819 93 159 0.0 0.0 0.00 0.00 0.00 47 1015.0
20260506181316 93 174 0.0 0.0 0.00 0.00 0.00 48 1014.9
20260506180814 90 104 0.0 0.0 0.00 0.00 0.00 51 1015.2
20260506180309 94 238 1.0 3.0 0.00 0.00 0.00 49 1015.2
20260506175806 92 157 0.0 0.0 0.00 0.00 0.00 52 1015.2
20260506175306 92 196 0.0 0.0 0.00 0.00 0.00 52 1015.3
20260506174800 93 146 0.0 0.0 0.00 0.00 0.00 49 1015.6
20260506174257 92 92 0.0 0.0 0.00 0.00 0.00 51 1015.4
20260506173755 90 223 0.0 0.0 0.00 0.00 0.00 51 1015.7
20260506173252 91 213 0.0 0.0 0.00 0.00 0.00 50 1015.6
20260506172748 89 161 0.0 0.0 0.00 0.00 0.00 55 1015.5
20260506172245 93 353 0.0 0.0 0.00 0.00 0.00 53 1015.7
20260506171743 91 257 0.0 0.0 0.00 0.00 0.00 56 1015.8
20260506171240 91 184 0.0 0.0 0.00 0.00 0.00 54 1015.9
20260506170737 91 189 0.0 0.0 0.00 0.00 0.00 55 1015.9
20260506170233 89 101 0.0 0.0 0.00 0.00 0.00 56 1016.0
20260506165732 88 328 1.0 2.0 0.00 0.00 0.00 59 1016.1
20260506165229 91 210 0.0 0.0 0.00 0.00 0.00 56 1015.8
20260506164726 91 215 0.0 0.0 0.00 0.00 0.00 57 1016.0
20260506164223 89 171 0.0 0.0 0.00 0.00 0.00 60 1015.9
20260506163719 87 208 0.0 0.0 0.00 0.00 0.00 61 1016.0
20260506163214 89 261 0.0 0.0 0.00 0.00 0.00 62 1015.9
20260506162711 91 151 0.0 0.0 0.00 0.00 0.00 56 1016.1
20260506162208 90 213 0.0 1.0 0.00 0.00 0.00 57 1016.2
20260506161705 89 92 0.0 0.0 0.00 0.00 0.00 59 1016.1
20260506161202 87 191 0.0 0.0 0.00 0.00 0.00 63 1016.2
20260506160700 87 239 0.0 0.0 0.00 0.00 0.00 63 1016.2
20260506160157 87 189 0.0 0.0 0.00 0.00 0.00 63 1016.2
20260506155655 87 200 0.0 0.0 0.00 0.00 0.00 64 1016.5
20260506155152 87 181 0.0 0.0 0.00 0.00 0.00 66 1016.2
20260506153254 86 193 0.0 1.0 0.00 0.00 0.00 66 1015.9
20260506152750 85 183 0.0 0.0 0.00 0.00 0.00 66 1016.1
20260506152248 86 253 1.0 5.0 0.00 0.00 0.00 66 1016.1
20260506151747 86 171 0.0 0.0 0.00 0.00 0.00 66 1016.1
20260506151243 86 220 0.0 2.0 0.00 0.00 0.00 65 1016.3
20260506150740 85 162 0.0 0.0 0.00 0.00 0.00 68 1015.8
20260506150237 85 165 0.0 0.0 0.00 0.00 0.00 70 1016.2
20260506145734 84 188 0.0 0.0 0.00 0.00 0.00 71 1016.2
20260506145230 84 202 0.0 0.0 0.00 0.00 0.00 70 1016.1
20260506144728 84 207 0.0 0.0 0.00 0.00 0.00 71 1016.2
20260506144225 83 219 1.0 1.0 0.00 0.00 0.00 71 1016.1
20260506143722 85 204 0.0 0.0 0.00 0.00 0.00 72 1016.0
20260506143219 84 169 0.0 0.0 0.00 0.00 0.00 72 1016.3
20260506142718 84 167 0.0 0.0 0.00 0.00 0.00 72 1016.1
20260506142216 84 153 0.0 0.0 0.00 0.00 0.00 73 1016.0
20260506141713 82 205 0.0 0.0 0.00 0.00 0.00 74 1016.2
20260506141211 83 223 0.0 0.0 0.00 0.00 0.00 74 1016.2
20260506140709 82 109 0.0 0.0 0.00 0.00 0.00 76 1016.1
20260506140206 81 230 0.0 0.0 0.00 0.00 0.00 76 1016.0
20260506135702 81 234 0.0 0.0 0.00 0.00 0.00 78 1016.0
20260506135159 80 158 0.0 0.0 0.00 0.00 0.00 79 1016.0
20260506134655 80 153 0.0 0.0 0.00 0.00 0.00 79 1015.9
20260506134151 80 150 0.0 0.0 0.00 0.00 0.00 80 1016.0
20260506133649 79 112 0.0 0.0 0.00 0.00 0.00 81 1016.2
20260506133145 78 160 0.0 0.0 0.00 0.00 0.00 81 1015.9
20260506132643 78 158 0.0 0.0 0.00 0.00 0.00 82 1016.0
20260506132139 77 200 0.0 0.0 0.00 0.00 0.00 83 1016.1
20260506131637 77 94 0.0 0.0 0.00 0.00 0.00 84 1016.1
20260506131133 77 222 0.0 0.0 0.00 0.00 0.00 84 1016.0
20260506130630 77 239 0.0 0.0 0.00 0.00 0.00 85 1016.1
20260506130128 76 162 0.0 0.0 0.00 0.00 0.00 85 1015.9
20260506125626 75 146 0.0 0.0 0.00 0.00 0.00 87 1015.8
20260506125123 74 175 0.0 0.0 0.00 0.00 0.00 89 1015.8
20260506124621 73 131 0.0 0.0 0.00 0.00 0.00 91 1015.9
20260506124119 72 150 0.0 0.0 0.00 0.00 0.00 91 1015.6
20260506123616 71 159 0.0 0.0 0.00 0.00 0.00 92 1015.7
20260506123115 70 197 0.0 0.0 0.00 0.00 0.00 92 1015.6
20260506122611 70 166 0.0 0.0 0.00 0.00 0.00 93 1015.5
20260506122109 69 124 0.0 0.0 0.00 0.00 0.00 93 1015.6
20260506121606 68 174 0.0 0.0 0.00 0.00 0.00 94 1015.5
20260506121102 68 157 0.0 0.0 0.00 0.00 0.00 94 1015.3
20260506120601 67 151 0.0 0.0 0.00 0.00 0.00 94 1015.4
20260506120057 67 154 0.0 0.0 0.00 0.00 0.00 95 1015.4
20260506115556 66 129 0.0 0.0 0.00 0.00 0.00 95 1015.2
20260506115054 66 156 0.0 0.0 0.00 0.00 0.00 95 1015.1
20260506114550 65 144 0.0 0.0 0.00 0.00 0.00 95 1015.0
20260506114049 65 153 0.0 0.0 0.00 0.00 0.00 95 1015.3
20260506113546 64 136 0.0 0.0 0.00 0.00 0.00 96 1015.3
20260506113044 64 140 0.0 0.0 0.00 0.00 0.00 95 1015.1
20260506112540 64 144 0.0 0.0 0.00 0.00 0.00 95 1015.0
20260506112037 63 145 0.0 0.0 0.00 0.00 0.00 95 1015.2
20260506111535 63 148 0.0 0.0 0.00 0.00 0.00 95 1015.0
20260506111032 63 139 0.0 0.0 0.00 0.00 0.00 95 1015.2
20260506110530 63 147 0.0 0.0 0.00 0.00 0.00 95 1015.1
20260506110027 63 161 0.0 0.0 0.00 0.00 0.00 95 1015.0
20260506105523 63 162 0.0 0.0 0.00 0.00 0.00 95 1015.0
20260506105020 63 161 0.0 0.0 0.00 0.00 0.00 95 1014.8
20260506104518 63 169 0.0 0.0 0.00 0.00 0.00 95 1014.7
20260506104016 63 161 0.0 0.0 0.00 0.00 0.00 95 1014.9
20260506103513 63 147 0.0 0.0 0.00 0.00 0.00 95 1014.7
20260506103010 63 161 0.0 0.0 0.00 0.00 0.00 95 1014.8
20260506102508 63 161 0.0 0.0 0.00 0.00 0.00 95 1014.7
20260506102005 63 169 0.0 0.0 0.00 0.00 0.00 95 1014.5
20260506101501 63 161 0.0 0.0 0.00 0.00 0.00 95 1014.4
20260506100959 64 161 0.0 0.0 0.00 0.00 0.00 95 1014.5
20260506100457 63 161 0.0 0.0 0.00 0.00 0.00 95 1014.4
20260506095955 64 148 0.0 0.0 0.00 0.00 0.00 95 1014.5
20260506095453 63 151 0.0 0.0 0.00 0.00 0.00 95 1014.5
20260506094949 63 150 0.0 0.0 0.00 0.00 0.00 95 1014.7
20260506094447 64 140 0.0 0.0 0.00 0.00 0.00 94 1014.4
20260506093944 64 150 0.0 0.0 0.00 0.00 0.00 94 1014.5
20260506093443 63 161 0.0 0.0 0.00 0.00 0.00 94 1014.6
20260506092940 63 162 0.0 0.0 0.00 0.00 0.00 94 1014.3
20260506092438 63 169 0.0 0.0 0.00 0.00 0.00 94 1014.4
20260506091934 64 148 0.0 0.0 0.00 0.00 0.00 94 1014.3
20260506091433 64 140 0.0 0.0 0.00 0.00 0.00 94 1014.5
20260506090929 64 161 0.0 0.0 0.00 0.00 0.00 94 1014.5
20260506090427 64 159 0.0 0.0 0.00 0.00 0.00 94 1014.5
20260506085923 64 159 0.0 0.0 0.00 0.00 0.00 94 1014.3
20260506085420 64 169 0.0 0.0 0.00 0.00 0.00 94 1014.3
20260506084916 64 166 0.0 0.0 0.00 0.00 0.00 94 1014.2
20260506084414 64 162 0.0 0.0 0.00 0.00 0.00 94 1014.1
20260506083910 64 161 0.0 0.0 0.00 0.00 0.00 94 1014.4
20260506083407 64 161 0.0 0.0 0.00 0.00 0.00 93 1014.3
20260506082905 64 141 0.0 0.0 0.00 0.00 0.00 94 1014.6
20260506082401 64 161 0.0 0.0 0.00 0.00 0.00 93 1014.2
20260506081857 65 150 0.0 0.0 0.00 0.00 0.00 93 1014.3
20260506081355 64 162 0.0 0.0 0.00 0.00 0.00 93 1014.3
20260506080852 64 162 0.0 0.0 0.00 0.00 0.00 93 1014.3
20260506080349 64 162 0.0 0.0 0.00 0.00 0.00 93 1014.3
20260506073333 64 149 0.0 0.0 0.00 0.00 0.00 92 1014.6
20260506072830 64 148 0.0 0.0 0.00 0.00 0.00 92 1014.8
20260506072328 65 141 0.0 0.0 0.00 0.00 0.00 92 1014.5
20260506071825 65 146 0.0 0.0 0.00 0.00 0.00 92 1014.6
20260506071323 65 139 0.0 0.0 0.00 0.00 0.00 92 1014.6
20260506070820 65 152 0.0 0.0 0.00 0.00 0.00 92 1014.7
20260506070317 65 151 0.0 0.0 0.00 0.00 0.00 92 1014.7
20260506062254 66 150 0.0 0.0 0.00 0.00 0.00 89 1015.2
20260506061750 66 150 0.0 0.0 0.00 0.00 0.00 89 1015.0
20260506061247 66 137 0.0 0.0 0.00 0.00 0.00 89 1014.8
20260506060745 66 148 0.0 0.0 0.00 0.00 0.00 89 1015.0
20260506060243 67 144 0.0 0.0 0.00 0.00 0.00 88 1014.9
20260506051214 68 152 0.0 0.0 0.00 0.00 0.00 86 1015.0
20260506050713 68 152 0.0 0.0 0.00 0.00 0.00 85 1015.3
20260506050209 68 148 0.0 0.0 0.00 0.00 0.00 85 1015.4
20260506044701 69 145 0.0 0.0 0.00 0.00 0.00 82 1015.7
20260506044157 69 147 0.0 0.0 0.00 0.00 0.00 81 1015.5
20260506043654 70 146 0.0 0.0 0.00 0.00 0.00 80 1015.7
20260506043152 70 148 0.0 0.0 0.00 0.00 0.00 80 1015.9
20260506042651 70 142 0.0 0.0 0.00 0.00 0.00 79 1015.8
20260506042149 71 139 0.0 0.0 0.00 0.00 0.00 78 1015.5
20260506041652 71 143 0.0 0.0 0.00 0.00 0.00 78 1015.6
20260506041143 71 151 0.0 0.0 0.00 0.00 0.00 77 1015.7
20260506040641 72 152 0.0 0.0 0.00 0.00 0.00 77 1015.5
20260506040138 72 156 0.0 0.0 0.00 0.00 0.00 77 1015.5
20260506035635 72 157 0.0 0.0 0.00 0.00 0.00 76 1015.6
20260506035131 73 152 0.0 0.0 0.00 0.00 0.00 76 1015.5
20260506034629 73 155 0.0 0.0 0.00 0.00 0.00 75 1015.3
20260506034126 73 151 0.0 0.0 0.00 0.00 0.00 75 1015.4
20260506033623 73 146 0.0 0.0 0.00 0.00 0.00 75 1015.4
20260506033120 73 152 0.0 0.0 0.00 0.00 0.00 74 1015.4
20260506032617 73 135 0.0 0.0 0.00 0.00 0.00 74 1015.4
20260506032114 74 155 0.0 0.0 0.00 0.00 0.00 73 1015.2
20260506031611 74 127 0.0 0.0 0.00 0.00 0.00 72 1015.2
20260506031108 75 158 0.0 0.0 0.00 0.00 0.00 71 1015.3
20260506030607 75 165 0.0 0.0 0.00 0.00 0.00 71 1015.0
20260506030103 75 103 0.0 0.0 0.00 0.00 0.00 71 1015.2
20260506025600 75 153 0.0 0.0 0.00 0.00 0.00 71 1015.1
20260506025056 76 142 0.0 0.0 0.00 0.00 0.00 70 1015.2
20260506024554 76 137 0.0 0.0 0.00 0.00 0.00 70 1015.2
20260506024050 76 155 0.0 0.0 0.00 0.00 0.00 71 1014.8
20260506023546 75 151 0.0 0.0 0.00 0.00 0.00 72 1015.1
20260506023044 75 145 0.0 0.0 0.00 0.00 0.00 73 1015.0
20260506022541 75 150 0.0 0.0 0.00 0.00 0.00 73 1014.9
20260506022038 75 147 0.0 0.0 0.00 0.00 0.00 74 1015.1
20260506021536 75 159 0.0 0.0 0.00 0.00 0.00 74 1014.7
20260506021033 74 151 0.0 0.0 0.00 0.00 0.00 76 1014.7
20260506020530 73 148 0.0 0.0 0.00 0.00 0.00 80 1014.8
20260506020027 73 143 0.0 0.0 0.00 0.00 0.00 83 1014.8
20260506015525 73 140 0.0 0.0 0.00 0.00 0.00 86 1015.1
20260506015022 73 152 0.0 0.0 0.00 0.00 0.00 86 1014.4
20260506014519 73 155 0.0 0.0 0.00 0.00 0.00 86 1014.6
20260506014015 73 156 0.0 0.0 0.00 0.00 0.00 86 1014.5
20260506013513 73 151 0.0 0.0 0.00 0.00 0.00 85 1014.5
20260506013010 73 126 0.0 0.0 0.00 0.00 0.00 83 1014.2
20260506012506 73 148 0.0 0.0 0.00 0.00 0.00 82 1014.3
20260506012003 74 138 0.0 0.0 0.00 0.00 0.00 81 1014.5
20260506011500 75 142 0.0 0.0 0.00 0.00 0.00 80 1014.4
20260506010956 74 146 0.0 0.0 0.00 0.00 0.00 79 1014.3
20260506010456 75 148 0.0 0.0 0.00 0.00 0.00 79 1014.1
20260506005951 75 146 0.0 0.0 0.00 0.00 0.00 78 1014.1
20260506005449 76 146 0.0 0.0 0.00 0.00 0.00 78 1014.1
20260506004944 76 132 0.0 0.0 0.00 0.00 0.00 77 1013.9
20260506004442 77 156 0.0 0.0 0.00 0.00 0.00 77 1013.8
20260506003938 77 217 0.0 0.0 0.00 0.00 0.00 77 1013.6
20260506003435 77 195 0.0 0.0 0.00 0.00 0.00 76 1013.8
20260506002931 78 170 0.0 0.0 0.00 0.00 0.00 76 1013.8
20260506002427 78 349 0.0 0.0 0.00 0.00 0.00 75 1013.5
20260506001923 78 211 0.0 0.0 0.00 0.00 0.00 74 1013.8
20260506001420 78 243 0.0 0.0 0.00 0.00 0.00 74 1013.4
20260506000918 78 317 0.0 0.0 0.00 0.00 0.00 74 1013.3
20260506000416 79 349 0.0 0.0 0.00 0.00 0.00 73 1013.3
20260505235912 79 237 0.0 0.0 0.00 0.00 0.00 72 1013.2
20260505235410 79 279 0.0 0.0 0.00 0.00 0.00 71 1013.3
20260505234906 80 252 2.0 6.0 0.00 0.00 0.00 70 1013.1
20260505234404 80 247 0.0 0.0 0.00 0.00 0.00 69 1013.3
20260505233900 80 241 0.0 0.0 0.00 0.00 0.00 69 1013.1
20260505233358 80 304 0.0 0.0 0.00 0.00 0.00 69 1013.1
20260505232855 81 291 4.0 6.0 0.00 0.00 0.00 68 1013.0
20260505232353 81 307 0.0 0.0 0.00 0.00 0.00 68 1012.9
20260505231850 81 226 0.0 0.0 0.00 0.00 0.00 67 1013.3
20260505231347 82 303 3.0 5.0 0.00 0.00 0.00 66 1013.3
20260505230845 82 243 0.0 0.0 0.00 0.00 0.00 66 1012.9
20260505230342 82 261 0.0 0.0 0.00 0.00 0.00 65 1013.2
20260505225839 82 259 0.0 1.0 0.00 0.00 0.00 63 1013.1
20260505225336 83 349 0.0 0.0 0.00 0.00 0.00 63 1013.2
20260505224831 83 272 3.0 5.0 0.00 0.00 0.00 62 1013.2